Volver al catálogo

STARLINK-38024

ActivoComunicacionesSSO
NORAD 69975·PAYLOAD·🇺🇸 United States

Lanzado Jul 11, 2026 desde Vandenberg Space Force Base

Loading…

Próximos Pases (próximas 24 horas)

TLE

ActualizadoSource: CelesTrak SupGP

Época: Sep 14, 2026, 23:36 UTC

1 69975C 26159A   26257.98381944 -.02469300  00000+0 -42596-1 0  2576
2 69975  97.2849  99.7714 0001624  84.4483 310.6980 15.52320610    11

Sigue STARLINK-38024 en tiempo real con AllMySat

Download on the App Store